SITRO-AIS 26

Last updated on Thu Nov 21 2024 00:03:40 GMT+0000 (Coordinated Universal Time)

1 59067U 24039S 24325.55974178 .00007066 00000+0 63627-3 0 9992 2 59067 95.3877 203.3771 0164078 163.3274 197.3435 14.85947685 39307
UTC large
Height (km)
Speed (km/s)
/
Latitude / Longitude
Inclination (degrees)
Orbital Period (minutes)
Azimuth
Elevation
Range (km)
Doppler Factor

Next 0 passes for location: London (51.5072 / 0.1276)

Sorry there are no passes over London.